Pecos, TX

8:02 PM CDT on August 19, 2017 (GMT -0500)
Pecos Municipal

Weather History for KPEQ - June, 2012

Change the Weather History Date:

Thursday, June 14, 2012

  Actual Average Record
Temperature  
Mean Temperature 87 °F -  
Max Temperature 104 °F 98 °F 111 °F (2011)
Min Temperature 70 °F 64 °F 49 °F (1979)
Cooling Degree Days 22    
Growing Degree Days 37 (Base 50)    
Moisture  
Dew Point 49 °F    
Average Humidity 33    
Maximum Humidity 60    
Minimum Humidity 11    
Precipitation  
Precipitation 0.00 in - - ()
Sea Level Pressure  
Sea Level Pressure 29.82 in    
Wind  
Wind Speed 8 mph (South)    
Max Wind Speed 22 mph    
Max Gust Speed 30 mph    
Visibility 10 miles    
Events      
Averages and records for this station are not official NWS values.
T = Trace of Precipitation, MM = Missing Value Source: NWS Daily Summary

Daily Weather History Graph

Daily Weather History Graph

Search for Another Location

Airport or City:

Trip Planner

Search our weather history database for the weather conditions in past years. The results will help you decide how hot, cold, wet, or windy it might be!

Date:

Astronomy

Jun. 14, 2012 Rise Set
Actual Time 6:49 AM CDT 8:59 PM CDT
Civil Twilight 6:21 AM CDT 9:27 PM CDT
Nautical Twilight 5:46 AM CDT 10:02 PM CDT
Astronomical Twilight 5:10 AM CDT 10:38 PM CDT
Moon 3:20 AM CDT (6/14) 4:55 PM CDT (6/14)
Length of Visible Light 15h 06m
Length of Day
14h 10m
Waning Crescent, 21% of the Moon is Illuminated
Jun 14
Waning Crescent
Jun 19
New
Jun 26
First Quarter
Jul 3
Full
Jul 10
Last Quarter

Hourly Weather History & Observations

Time (CDT) Temp. Dew Point Humidity Pressure Visibility Wind Dir Wind Speed Gust Speed Precip Events Conditions
12:15 AM 79.9 °F 58.1 °F 47% 29.83 in 10.0 mi SSE 4.6 mph - N/A   Clear
12:35 AM 77.5 °F 58.1 °F 51% 29.82 in 10.0 mi South 6.9 mph - N/A   Clear
12:55 AM 77.0 °F 57.7 °F 51% 29.81 in 10.0 mi SSE 6.9 mph - N/A   Clear
1:15 AM 76.5 °F 57.0 °F 51% 29.82 in 10.0 mi SSE 8.1 mph - N/A   Clear
1:35 AM 76.5 °F 56.3 °F 50% 29.81 in 10.0 mi South 8.1 mph - N/A   Clear
1:55 AM 76.5 °F 56.3 °F 50% 29.81 in 10.0 mi SSE 10.4 mph - N/A   Clear
2:15 AM 77.5 °F 56.5 °F 48% 29.81 in 10.0 mi South 10.4 mph - N/A   Clear
2:55 AM 75.4 °F 57.0 °F 53% 29.80 in 10.0 mi South 5.8 mph - N/A   Clear
3:15 AM 74.3 °F 56.7 °F 54% 29.80 in 10.0 mi South 5.8 mph - N/A   Clear
3:35 AM 73.8 °F 56.3 °F 54% 29.80 in 10.0 mi SSW 3.5 mph - N/A   Clear
3:55 AM 72.3 °F 56.3 °F 57% 29.80 in 10.0 mi WSW 3.5 mph - N/A   Clear
4:15 AM 71.1 °F 56.7 °F 60% 29.79 in 10.0 mi SW 4.6 mph - N/A   Clear
4:35 AM 72.0 °F 56.5 °F 58% 29.80 in 10.0 mi WSW 3.5 mph - N/A   Clear
4:55 AM 72.1 °F 55.8 °F 56% 29.80 in 10.0 mi Calm Calm - N/A   Clear
5:15 AM 75.0 °F 54.0 °F 48% 29.81 in 10.0 mi Calm Calm - N/A   Clear
5:35 AM 75.6 °F 53.4 °F 46% 29.81 in 10.0 mi Calm Calm - N/A   Clear
5:55 AM 76.1 °F 52.3 °F 43% 29.82 in 10.0 mi SSE 3.5 mph - N/A   Clear
6:15 AM 72.3 °F 53.1 °F 51% 29.83 in 10.0 mi East 8.1 mph - N/A   Clear
6:55 AM 70.2 °F 53.6 °F 56% 29.84 in 10.0 mi ESE 9.2 mph - N/A   Clear
7:15 AM 71.8 °F 52.2 °F 50% 29.85 in 10.0 mi SSE 9.2 mph - N/A   Clear
7:35 AM 76.8 °F 50.5 °F 40% 29.86 in 10.0 mi SSE 10.4 mph - N/A   Clear
7:55 AM 79.2 °F 50.0 °F 36% 29.86 in 10.0 mi South 10.4 mph - N/A   Clear
8:15 AM 80.4 °F 49.8 °F 34% 29.86 in 10.0 mi South 8.1 mph - N/A   Clear
8:35 AM 80.8 °F 51.3 °F 36% 29.87 in 10.0 mi SSE 4.6 mph - N/A   Clear
8:55 AM 81.9 °F 51.4 °F 35% 29.87 in 10.0 mi South 8.1 mph - N/A   Clear
9:15 AM 84.0 °F 50.4 °F 31% 29.88 in 10.0 mi South 9.2 mph - N/A   Clear
9:35 AM 86.0 °F 50.0 °F 29% 29.88 in 10.0 mi South 12.7 mph - N/A   Clear
9:55 AM 88.2 °F 50.0 °F 27% 29.88 in 10.0 mi South 13.8 mph - N/A   Clear
10:15 AM 90.1 °F 48.6 °F 24% 29.88 in 10.0 mi South 13.8 mph 19.6 mph N/A   Clear
10:55 AM 93.4 °F 47.5 °F 21% 29.86 in 10.0 mi South 13.8 mph 18.4 mph N/A   Clear
11:15 AM 95.2 °F 46.2 °F 19% 29.86 in 10.0 mi South 13.8 mph - N/A   Clear
11:35 AM 96.6 °F 46.0 °F 18% 29.85 in 10.0 mi West 10.4 mph - N/A   Clear
11:55 AM 96.4 °F 45.3 °F 17% 29.85 in 10.0 mi SW 6.9 mph - N/A   Clear
12:15 PM 96.6 °F 44.4 °F 17% 29.84 in 10.0 mi SW 6.9 mph - N/A   Clear
12:55 PM 99.9 °F 41.7 °F 14% 29.83 in 10.0 mi SSW 6.9 mph - N/A   Clear
1:15 PM 100.9 °F 40.6 °F 13% 29.83 in 10.0 mi SW 5.8 mph 17.3 mph N/A   Clear
1:35 PM 101.3 °F 40.3 °F 12% 29.83 in 10.0 mi SW 9.2 mph 18.4 mph N/A   Clear
1:55 PM 101.7 °F 40.3 °F 12% 29.82 in 10.0 mi SW 13.8 mph 18.4 mph N/A   Clear
2:15 PM 102.2 °F 40.5 °F 12% 29.81 in 10.0 mi SW 8.1 mph 17.3 mph N/A   Clear
2:35 PM 102.6 °F 40.8 °F 12% 29.80 in 10.0 mi SW 8.1 mph 16.1 mph N/A   Clear
2:55 PM 103.1 °F 41.2 °F 12% 29.79 in 10.0 mi WSW 13.8 mph 19.6 mph N/A   Clear
3:15 PM 103.3 °F 41.2 °F 12% 29.79 in 10.0 mi SW 10.4 mph 18.4 mph N/A   Clear
4:15 PM 104.7 °F 41.7 °F 12% 29.76 in 10.0 mi North 5.8 mph - N/A   Clear
4:55 PM 104.4 °F 41.2 °F 12% 29.75 in 10.0 mi NNW 6.9 mph - N/A   Clear
5:35 PM 104.2 °F 40.5 °F 11% 29.73 in 10.0 mi Calm Calm - N/A   Clear
5:55 PM 104.7 °F 40.5 °F 11% 29.72 in 10.0 mi WNW 10.4 mph - N/A   Clear
6:15 PM 103.6 °F 42.4 °F 12% 29.72 in 10.0 mi SE 17.3 mph 29.9 mph N/A   Clear
6:35 PM 99.7 °F 41.7 °F 14% 29.73 in 10.0 mi ESE 21.9 mph 27.6 mph N/A   Clear
8:35 PM 91.6 °F 39.9 °F 16% 29.76 in 10.0 mi SE 19.6 mph 26.5 mph N/A   Clear
8:55 PM 88.7 °F 42.1 °F 20% 29.77 in 10.0 mi SE 20.7 mph 28.8 mph N/A   Clear
9:55 PM 81.7 °F 47.1 °F 30% 29.80 in 10.0 mi SE 20.7 mph 25.3 mph N/A   Clear
10:15 PM 81.5 °F 46.2 °F 29% 29.80 in 10.0 mi SE 20.7 mph 25.3 mph N/A   Clear
10:35 PM 81.0 °F 46.4 °F 30% 29.81 in 10.0 mi SSE 18.4 mph 23.0 mph N/A   Clear
10:55 PM 79.5 °F 46.9 °F 32% 29.82 in 10.0 mi SSE 16.1 mph - N/A   Clear
11:15 PM 78.4 °F 48.4 °F 35% 29.82 in 10.0 mi SSE 13.8 mph 19.6 mph N/A   Clear
11:35 PM 78.4 °F 51.4 °F 39% 29.82 in 10.0 mi SSE 13.8 mph 17.3 mph N/A   Clear
11:55 PM 77.9 °F 53.4 °F 43% 29.82 in 10.0 mi South 11.5 mph - N/A   Clear